• In Portugal
  • List of Countries
  • For 7 days
  • Water Temperature
  • Satellite Maps
  • Weather Map
  • Weather Widgets
  • user-avatar
    Login

    Hourly Weather Salyan

    Today, 20 October, Friday

    Time Temperature Precipitation Wind Pressure Humidity
    00:00 +20°C° 0 mm 1 mps 652 mmHg 73%
    01:00 +19°C° 0 mm 1 mps 652 mmHg 72%
    02:00 +19°C° 0 mm 1 mps 652 mmHg 72%
    03:00 +19°C° 0 mm 1 mps 652 mmHg 71%
    04:00 +19°C° 0 mm 1 mps 652 mmHg 70%
    05:00 +19°C° 0 mm 1 mps 651 mmHg 72%
    06:00 +21°C° 0 mm 1 mps 652 mmHg 67%
    07:00 +23°C° 0 mm 1 mps 653 mmHg 62%
    08:00 +23°C° 0 mm 0 mps 654 mmHg 56%
    09:00 +26°C° 0 mm 1 mps 654 mmHg 53%
    10:00 +28°C° 0 mm 1 mps 654 mmHg 49%
    11:00 +29°C° 0 mm 2 mps 654 mmHg 46%
    12:00 +29°C° 0 mm 2 mps 653 mmHg 47%
    13:00 +28°C° 0 mm 2 mps 653 mmHg 49%
    14:00 +28°C° 0 mm 2 mps 652 mmHg 50%
    15:00 +26°C° 0 mm 1 mps 652 mmHg 59%
    16:00 +24°C° 0 mm 1 mps 651 mmHg 67%
    17:00 +20°C° 0 mm 0 mps 651 mmHg 78%
    18:00 +19°C° 0 mm 0 mps 651 mmHg 79%
    19:00 +21°C° 0 mm 1 mps 651 mmHg 80%
    20:00 +20°C° 0 mm 1 mps 652 mmHg 81%
    21:00 +20°C° 0 mm 1 mps 652 mmHg 80%
    22:00 +20°C° 0 mm 1 mps 652 mmHg 80%
    23:00 +19°C° 0 mm 1 mps 652 mmHg 79%

    Tomorrow, 21 October, Saturday

    Time Temperature Precipitation Wind Pressure Humidity
    00:00 +19°C° 0 mm 1 mps 651 mmHg 78%
    01:00 +19°C° 0 mm 1 mps 651 mmHg 77%
    02:00 +18°C° 0 mm 1 mps 650 mmHg 76%
    03:00 +18°C° 0 mm 1 mps 650 mmHg 74%
    04:00 +18°C° 0 mm 1 mps 650 mmHg 72%
    05:00 +16°C° 0 mm 1 mps 650 mmHg 70%
    06:00 +19°C° 0 mm 1 mps 650 mmHg 65%
    07:00 +21°C° 0 mm 1 mps 651 mmHg 60%
    08:00 +21°C° 0 mm 0 mps 651 mmHg 55%
    09:00 +25°C° 0 mm 1 mps 651 mmHg 52%
    10:00 +26°C° 0 mm 2 mps 651 mmHg 48%
    11:00 +27°C° 0 mm 2 mps 651 mmHg 45%
    12:00 +27°C° 0 mm 2 mps 650 mmHg 45%
    13:00 +27°C° 0 mm 3 mps 650 mmHg 45%
    14:00 +27°C° 0 mm 3 mps 649 mmHg 46%
    15:00 +25°C° 0 mm 2 mps 649 mmHg 54%
    16:00 +23°C° 0 mm 2 mps 648 mmHg 63%
    17:00 +20°C° 0 mm 1 mps 648 mmHg 71%
    18:00 +20°C° 0 mm 1 mps 648 mmHg 72%
    19:00 +19°C° 0 mm 1 mps 648 mmHg 73%
    20:00 +19°C° 0 mm 1 mps 649 mmHg 74%
    21:00 +18°C° 0 mm 1 mps 649 mmHg 74%
    22:00 +18°C° 0 mm 1 mps 648 mmHg 74%
    23:00 +18°C° 0 mm 1 mps 648 mmHg 73%

    Day after tomorrow, 22 October, Sunday

    Time Temperature Precipitation Wind Pressure Humidity
    00:00 +16°C° 0 mm 1 mps 648 mmHg 72%
    01:00 +16°C° 0 mm 1 mps 648 mmHg 71%
    02:00 +16°C° 0 mm 1 mps 648 mmHg 70%
    03:00 +16°C° 0 mm 1 mps 648 mmHg 69%
    04:00 +16°C° 0 mm 1 mps 648 mmHg 68%
    05:00 +15°C° 0 mm 1 mps 648 mmHg 67%
    06:00 +19°C° 0 mm 1 mps 649 mmHg 62%
    07:00 +21°C° 0 mm 1 mps 650 mmHg 57%
    08:00 +21°C° 0 mm 0 mps 651 mmHg 53%
    09:00 +24°C° 0 mm 1 mps 651 mmHg 49%
    10:00 +26°C° 0 mm 1 mps 651 mmHg 45%
    11:00 +27°C° 0 mm 2 mps 652 mmHg 42%
    12:00 +27°C° 0 mm 2 mps 651 mmHg 42%
    13:00 +27°C° 0 mm 2 mps 651 mmHg 42%
    14:00 +27°C° 0 mm 2 mps 650 mmHg 42%
    15:00 +24°C° 0 mm 2 mps 650 mmHg 50%
    16:00 +22°C° 0 mm 1 mps 649 mmHg 59%
    17:00 +20°C° 0 mm 1 mps 649 mmHg 67%
    18:00 +19°C° 0 mm 1 mps 649 mmHg 68%
    19:00 +18°C° 0 mm 1 mps 649 mmHg 69%
    20:00 +18°C° 0 mm 1 mps 650 mmHg 71%
    21:00 +16°C° 0 mm 1 mps 650 mmHg 70%
    22:00 +16°C° 0 mm 1 mps 650 mmHg 70%
    23:00 +16°C° 0 mm 2 mps 650 mmHg 70%

    23 October, Monday

    Time Temperature Precipitation Wind Pressure Humidity
    00:00 +15°C° 0 mm 2 mps 650 mmHg 69%
    01:00 +15°C° 0 mm 2 mps 650 mmHg 68%
    02:00 +15°C° 0 mm 2 mps 650 mmHg 67%
    03:00 +15°C° 0 mm 2 mps 650 mmHg 66%
    04:00 +14°C° 0 mm 2 mps 650 mmHg 65%
    05:00 +14°C° 0 mm 2 mps 650 mmHg 64%
    06:00 +16°C° 0 mm 1 mps 651 mmHg 58%
    07:00 +20°C° 0 mm 1 mps 652 mmHg 53%
    08:00 +22°C° 0 mm 1 mps 653 mmHg 47%
    09:00 +23°C° 0 mm 1 mps 653 mmHg 43%
    10:00 +25°C° 0 mm 1 mps 654 mmHg 38%
    11:00 +26°C° 0 mm 2 mps 654 mmHg 33%
    12:00 +26°C° 0 mm 2 mps 653 mmHg 34%
    13:00 +26°C° 0 mm 2 mps 653 mmHg 34%
    14:00 +26°C° 0 mm 2 mps 652 mmHg 35%
    15:00 +23°C° 0 mm 2 mps 652 mmHg 44%
    16:00 +21°C° 0 mm 1 mps 651 mmHg 52%
    17:00 +16°C° 0 mm 0 mps 650 mmHg 61%
    18:00 +18°C° 0 mm 1 mps 651 mmHg 60%
    19:00 +16°C° 0 mm 1 mps 651 mmHg 59%
    20:00 +15°C° 0 mm 2 mps 652 mmHg 59%
    21:00 +15°C° 0 mm 2 mps 652 mmHg 56%
    22:00 +15°C° 0 mm 2 mps 652 mmHg 54%
    23:00 +15°C° 0 mm 2 mps 652 mmHg 51%

    24 October, Tuesday

    Time Temperature Precipitation Wind Pressure Humidity
    00:00 +14°C° 0 mm 2 mps 652 mmHg 49%
    01:00 +14°C° 0 mm 2 mps 651 mmHg 46%
    02:00 +14°C° 0 mm 2 mps 651 mmHg 44%
    03:00 +14°C° 0 mm 2 mps 651 mmHg 42%
    04:00 +14°C° 0 mm 2 mps 651 mmHg 40%
    05:00 +13°C° 0 mm 2 mps 651 mmHg 38%
    06:00 +16°C° 0 mm 2 mps 652 mmHg 38%
    07:00 +19°C° 0 mm 1 mps 653 mmHg 37%
    08:00 +21°C° 0 mm 1 mps 654 mmHg 37%
    09:00 +22°C° 0 mm 1 mps 655 mmHg 35%
    10:00 +24°C° 0 mm 2 mps 655 mmHg 34%
    11:00 +25°C° 0 mm 2 mps 655 mmHg 32%
    12:00 +25°C° 0 mm 2 mps 655 mmHg 34%
    13:00 +25°C° 0 mm 2 mps 654 mmHg 35%
    14:00 +25°C° 0 mm 2 mps 654 mmHg 36%
    15:00 +23°C° 0 mm 2 mps 653 mmHg 45%
    16:00 +20°C° 0 mm 1 mps 653 mmHg 54%
    17:00 +16°C° 0 mm 0 mps 652 mmHg 63%
    18:00 +16°C° 0 mm 1 mps 652 mmHg 62%
    19:00 +16°C° 0 mm 1 mps 653 mmHg 61%
    20:00 +15°C° 0 mm 2 mps 653 mmHg 60%
    21:00 +15°C° 0 mm 2 mps 653 mmHg 58%
    22:00 +14°C° 0 mm 2 mps 653 mmHg 55%
    23:00 +14°C° 0 mm 2 mps 653 mmHg 53%

    25 October, Wednesday

    Time Temperature Precipitation Wind Pressure Humidity
    00:00 +14°C° 0 mm 2 mps 653 mmHg 50%
    01:00 +14°C° 0 mm 2 mps 652 mmHg 47%
    02:00 +13°C° 0 mm 2 mps 652 mmHg 45%
    03:00 +13°C° 0 mm 2 mps 652 mmHg 43%
    04:00 +13°C° 0 mm 2 mps 653 mmHg 42%
    05:00 +13°C° 0 mm 2 mps 653 mmHg 40%
    06:00 +15°C° 0 mm 2 mps 654 mmHg 40%
    07:00 +18°C° 0 mm 1 mps 655 mmHg 39%
    08:00 +21°C° 0 mm 1 mps 656 mmHg 38%
    09:00 +22°C° 0 mm 1 mps 656 mmHg 38%
    10:00 +24°C° 0 mm 1 mps 657 mmHg 38%
    11:00 +25°C° 0 mm 2 mps 657 mmHg 37%
    12:00 +25°C° 0 mm 2 mps 656 mmHg 39%
    13:00 +25°C° 0 mm 2 mps 655 mmHg 41%
    14:00 +25°C° 0 mm 2 mps 655 mmHg 43%
    15:00 +22°C° 0 mm 1 mps 654 mmHg 52%
    16:00 +20°C° 0 mm 1 mps 654 mmHg 61%
    17:00 +16°C° 0 mm 0 mps 653 mmHg 71%
    18:00 +16°C° 0 mm 1 mps 654 mmHg 71%
    19:00 +16°C° 0 mm 1 mps 654 mmHg 72%
    20:00 +15°C° 0 mm 1 mps 654 mmHg 73%
    21:00 +15°C° 0 mm 1 mps 654 mmHg 72%
    22:00 +15°C° 0 mm 1 mps 654 mmHg 71%
    23:00 +14°C° 0 mm 1 mps 654 mmHg 70%
    Show more